Time,TemperatureF,DewpointF,PressureIn,WindDirection,WindDirectionDegrees,WindSpeedMPH,WindSpeedGustMPH,Humidity,HourlyPrecipIn,Conditions,Clouds,dailyrainin,SoftwareType,DateUTC
2013-04-27 00:10:00,58.3,54.0,30.03,NNW,341,8.0,12.0,84,0.00,,,0.00,weatherlink.com 1.10,2013-04-27 06:10:00,
2013-04-27 00:25:00,57.9,54.0,30.03,NNW,339,8.0,12.0,85,0.00,,,0.00,weatherlink.com 1.10,2013-04-27 06:25:00,
2013-04-27 00:40:00,58.2,54.0,30.03,North,354,7.0,15.0,85,0.00,,,0.00,weatherlink.com 1.10,2013-04-27 06:40:00,
2013-04-27 00:55:00,58.4,54.0,30.03,North,4,11.0,17.0,84,0.00,,,0.00,weatherlink.com 1.10,2013-04-27 06:55:00,
2013-04-27 01:10:00,58.8,54.0,30.03,NNE,12,22.0,24.0,83,0.00,,,0.00,weatherlink.com 1.10,2013-04-27 07:10:00,
2013-04-27 01:25:00,59.2,53.0,30.02,North,4,13.0,21.0,81,0.00,,,0.00,weatherlink.com 1.10,2013-04-27 07:25:00,
2013-04-27 01:40:00,59.1,53.0,30.03,NNE,25,8.0,19.0,81,0.00,,,0.00,weatherlink.com 1.10,2013-04-27 07:40:00,
2013-04-27 01:55:00,59.0,53.0,30.02,NNE,13,13.0,20.0,81,0.00,,,0.00,weatherlink.com 1.10,2013-04-27 07:55:00,
2013-04-27 02:10:00,58.3,53.0,30.02,NNE,13,8.0,18.0,82,0.00,,,0.00,weatherlink.com 1.10,2013-04-27 08:10:00,
2013-04-27 02:25:00,57.5,53.0,30.02,NNE,14,13.0,14.0,84,0.00,,,0.00,weatherlink.com 1.10,2013-04-27 08:25:00,
2013-04-27 02:40:00,56.8,52.0,30.03,NNE,12,6.0,13.0,85,0.00,,,0.00,weatherlink.com 1.10,2013-04-27 08:40:00,
2013-04-27 02:55:00,56.1,52.0,30.04,NNE,32,2.0,10.0,86,0.00,,,0.00,weatherlink.com 1.10,2013-04-27 08:55:00,
2013-04-27 03:10:00,55.3,52.0,30.04,NNE,22,2.0,8.0,87,0.00,,,0.00,weatherlink.com 1.10,2013-04-27 09:10:00,
2013-04-27 03:25:00,54.5,51.0,30.04,NNE,17,3.0,7.0,88,0.00,,,0.00,weatherlink.com 1.10,2013-04-27 09:25:00,
2013-04-27 03:40:00,53.9,51.0,30.04,North,4,3.0,9.0,89,0.00,,,0.00,weatherlink.com 1.10,2013-04-27 09:40:00,
2013-04-27 03:55:00,53.4,50.0,30.04,NNE,14,4.0,6.0,89,0.00,,,0.00,weatherlink.com 1.10,2013-04-27 09:55:00,
2013-04-27 04:10:00,53.5,51.0,30.05,North,10,8.0,11.0,90,0.00,,,0.00,weatherlink.com 1.10,2013-04-27 10:10:00,
2013-04-27 04:25:00,54.2,51.0,30.06,NNE,23,11.0,15.0,89,0.00,,,0.00,weatherlink.com 1.10,2013-04-27 10:25:00,
2013-04-27 04:40:00,54.5,51.0,30.06,NNE,16,6.0,13.0,88,0.00,,,0.00,weatherlink.com 1.10,2013-04-27 10:40:00,
2013-04-27 04:55:00,54.9,51.0,30.06,North,350,10.0,14.0,87,0.00,,,0.00,weatherlink.com 1.10,2013-04-27 10:55:00,
2013-04-27 05:10:00,55.3,51.0,30.07,NNE,13,11.0,13.0,86,0.00,,,0.00,weatherlink.com 1.10,2013-04-27 11:10:00,
2013-04-27 05:25:00,55.5,51.0,30.07,NNE,22,10.0,12.0,86,0.00,,,0.00,weatherlink.com 1.10,2013-04-27 11:25:00,
2013-04-27 05:40:00,55.8,51.0,30.08,North,4,8.0,11.0,85,0.00,,,0.00,weatherlink.com 1.10,2013-04-27 11:40:00,
2013-04-27 05:55:00,55.8,51.0,30.10,ENE,62,3.0,8.0,84,0.00,,,0.00,weatherlink.com 1.10,2013-04-27 11:55:00,
2013-04-27 06:10:00,55.7,51.0,30.10,ENE,67,2.0,10.0,84,0.00,,,0.00,weatherlink.com 1.10,2013-04-27 12:10:00,
2013-04-27 06:26:00,55.8,51.0,30.11,NNE,33,7.0,9.0,83,0.00,,,0.00,weatherlink.com 1.10,2013-04-27 12:26:00,
2013-04-27 06:41:00,55.9,51.0,30.11,North,10,6.0,10.0,83,0.00,,,0.00,weatherlink.com 1.10,2013-04-27 12:41:00,
2013-04-27 06:56:00,55.9,51.0,30.12,NNW,346,8.0,11.0,82,0.00,,,0.00,weatherlink.com 1.10,2013-04-27 12:56:00,
2013-04-27 07:11:00,56.0,51.0,30.12,North,354,6.0,10.0,82,0.00,,,0.00,weatherlink.com 1.10,2013-04-27 13:11:00,
2013-04-27 07:26:00,55.9,50.0,30.13,North,349,10.0,12.0,81,0.00,,,0.00,weatherlink.com 1.10,2013-04-27 13:26:00,
2013-04-27 07:41:00,56.0,50.0,30.14,NNE,30,13.0,14.0,80,0.00,,,0.00,weatherlink.com 1.10,2013-04-27 13:41:00,
2013-04-27 07:56:00,57.2,50.0,30.14,North,8,7.0,15.0,78,0.00,,,0.00,weatherlink.com 1.10,2013-04-27 13:56:00,
2013-04-27 08:11:00,57.3,50.0,30.13,NNE,12,7.0,16.0,77,0.00,,,0.00,weatherlink.com 1.10,2013-04-27 14:11:00,
2013-04-27 08:26:00,57.6,51.0,30.13,NNE,12,11.0,13.0,78,0.00,,,0.00,weatherlink.com 1.10,2013-04-27 14:26:00,
2013-04-27 08:41:00,58.7,51.0,30.13,NE,50,9.0,14.0,75,0.00,,,0.00,weatherlink.com 1.10,2013-04-27 14:41:00,
2013-04-27 08:56:00,59.3,51.0,30.14,NNE,32,4.0,9.0,73,0.00,,,0.00,weatherlink.com 1.10,2013-04-27 14:56:00,
2013-04-27 09:11:00,59.8,51.0,30.13,NE,41,4.0,11.0,73,0.00,,,0.00,weatherlink.com 1.10,2013-04-27 15:11:00,
2013-04-27 09:26:00,60.4,51.0,30.13,North,4,6.0,9.0,71,0.00,,,0.00,weatherlink.com 1.10,2013-04-27 15:26:00,
2013-04-27 09:41:00,61.7,51.0,30.13,North,4,0.0,7.0,68,0.00,,,0.00,weatherlink.com 1.10,2013-04-27 15:41:00,
2013-04-27 09:56:00,62.9,52.0,30.13,NE,39,2.0,8.0,67,0.00,,,0.00,weatherlink.com 1.10,2013-04-27 15:56:00,
2013-04-27 10:11:00,64.2,52.0,30.13,NE,43,2.0,8.0,64,0.00,,,0.00,weatherlink.com 1.10,2013-04-27 16:11:00,
2013-04-27 10:26:00,64.7,52.0,30.13,North,359,0.0,7.0,63,0.00,,,0.00,weatherlink.com 1.10,2013-04-27 16:26:00,
2013-04-27 10:41:00,65.8,52.0,30.13,NNW,336,2.0,8.0,61,0.00,,,0.00,weatherlink.com 1.10,2013-04-27 16:41:00,
2013-04-27 10:56:00,66.9,51.0,30.13,NE,50,2.0,7.0,58,0.00,,,0.00,weatherlink.com 1.10,2013-04-27 16:56:00,
2013-04-27 11:11:00,67.6,52.0,30.12,WNW,290,4.0,11.0,58,0.00,,,0.00,weatherlink.com 1.10,2013-04-27 17:11:00,
2013-04-27 11:26:00,68.5,52.0,30.11,NE,55,4.0,11.0,55,0.00,,,0.00,weatherlink.com 1.10,2013-04-27 17:26:00,
2013-04-27 11:41:00,69.5,51.0,30.11,NE,46,4.0,10.0,53,0.00,,,0.00,weatherlink.com 1.10,2013-04-27 17:41:00,
2013-04-27 11:56:00,69.9,51.0,30.10,North,354,6.0,7.0,51,0.00,,,0.00,weatherlink.com 1.10,2013-04-27 17:56:00,
2013-04-27 12:11:00,71.4,51.0,30.09,NE,53,0.0,8.0,48,0.00,,,0.00,weatherlink.com 1.10,2013-04-27 18:11:00,
2013-04-27 12:26:00,71.5,50.0,30.08,North,354,3.0,8.0,47,0.00,,,0.00,weatherlink.com 1.10,2013-04-27 18:26:00,
2013-04-27 12:41:00,72.7,51.0,30.07,North,359,0.0,8.0,46,0.00,,,0.00,weatherlink.com 1.10,2013-04-27 18:41:00,
2013-04-27 12:56:00,73.2,49.0,30.07,WNW,299,2.0,8.0,43,0.00,,,0.00,weatherlink.com 1.10,2013-04-27 18:56:00,
2013-04-27 13:11:00,74.8,49.0,30.06,ENE,75,8.0,10.0,41,0.00,,,0.00,weatherlink.com 1.10,2013-04-27 19:11:00,
2013-04-27 13:26:00,75.1,49.0,30.05,NNE,16,3.0,7.0,40,0.00,,,0.00,weatherlink.com 1.10,2013-04-27 19:26:00,
2013-04-27 13:41:00,76.0,48.0,30.05,NE,50,5.0,9.0,37,0.00,,,0.00,weatherlink.com 1.10,2013-04-27 19:41:00,
2013-04-27 13:56:00,76.2,49.0,30.04,ESE,120,4.0,8.0,38,0.00,,,0.00,weatherlink.com 1.10,2013-04-27 19:56:00,
2013-04-27 14:12:00,77.0,48.0,30.03,NE,45,3.0,9.0,36,0.00,,,0.00,weatherlink.com 1.10,2013-04-27 20:12:00,
2013-04-27 14:27:00,77.3,47.0,30.02,ENE,74,2.0,10.0,34,0.00,,,0.00,weatherlink.com 1.10,2013-04-27 20:27:00,
2013-04-27 14:42:00,77.8,46.0,30.01,NNE,12,8.0,11.0,33,0.00,,,0.00,weatherlink.com 1.10,2013-04-27 20:42:00,
2013-04-27 14:57:00,78.3,47.0,30.00,ENE,73,2.0,11.0,33,0.00,,,0.00,weatherlink.com 1.10,2013-04-27 20:57:00,
2013-04-27 15:12:00,78.6,47.0,30.00,East,101,0.0,11.0,33,0.00,,,0.00,weatherlink.com 1.10,2013-04-27 21:12:00,
2013-04-27 15:27:00,79.1,46.0,29.99,NE,48,0.0,11.0,31,0.00,,,0.00,weatherlink.com 1.10,2013-04-27 21:27:00,
2013-04-27 15:42:00,78.8,47.0,29.98,NE,40,5.0,8.0,32,0.00,,,0.00,weatherlink.com 1.10,2013-04-27 21:42:00,
2013-04-27 15:57:00,79.4,45.0,29.98,ENE,78,9.0,11.0,30,0.00,,,0.00,weatherlink.com 1.10,2013-04-27 21:57:00,
2013-04-27 16:12:00,79.6,45.0,29.98,ENE,74,9.0,10.0,29,0.00,,,0.00,weatherlink.com 1.10,2013-04-27 22:12:00,
2013-04-27 16:27:00,79.4,44.0,29.97,ENE,64,10.0,11.0,28,0.00,,,0.00,weatherlink.com 1.10,2013-04-27 22:27:00,
2013-04-27 16:42:00,80.0,44.0,29.97,NNE,32,5.0,10.0,28,0.00,,,0.00,weatherlink.com 1.10,2013-04-27 22:42:00,
2013-04-27 16:57:00,79.6,44.0,29.97,ESE,102,0.0,10.0,28,0.00,,,0.00,weatherlink.com 1.10,2013-04-27 22:57:00,
2013-04-27 17:12:00,79.9,43.0,29.97,ENE,63,0.0,10.0,27,0.00,,,0.00,weatherlink.com 1.10,2013-04-27 23:12:00,
2013-04-27 17:27:00,79.6,45.0,29.97,ENE,76,10.0,11.0,29,0.00,,,0.00,weatherlink.com 1.10,2013-04-27 23:27:00,
2013-04-27 17:42:00,78.9,46.0,29.97,ENE,74,8.0,13.0,31,0.00,,,0.00,weatherlink.com 1.10,2013-04-27 23:42:00,
2013-04-27 17:57:00,78.2,45.0,29.97,East,89,1.0,11.0,31,0.00,,,0.00,weatherlink.com 1.10,2013-04-27 23:57:00,
2013-04-27 18:12:00,77.8,46.0,29.97,ESE,103,3.0,11.0,32,0.00,,,0.00,weatherlink.com 1.10,2013-04-28 00:12:00,
2013-04-27 18:27:00,76.8,46.0,29.97,ESE,104,2.0,9.0,33,0.00,,,0.00,weatherlink.com 1.10,2013-04-28 00:27:00,
2013-04-27 18:42:00,76.0,46.0,29.97,ESE,114,3.0,8.0,34,0.00,,,0.00,weatherlink.com 1.10,2013-04-28 00:42:00,
2013-04-27 18:57:00,74.8,45.0,29.97,ESE,103,2.0,8.0,35,0.00,,,0.00,weatherlink.com 1.10,2013-04-28 00:57:00,
2013-04-27 19:12:00,73.2,46.0,29.97,ESE,102,2.0,8.0,38,0.00,,,0.00,weatherlink.com 1.10,2013-04-28 01:12:00,
2013-04-27 19:27:00,71.6,47.0,29.97,ESE,120,3.0,5.0,41,0.00,,,0.00,weatherlink.com 1.10,2013-04-28 01:27:00,
2013-04-27 19:42:00,70.5,47.0,29.97,ESE,110,2.0,6.0,43,0.00,,,0.00,weatherlink.com 1.10,2013-04-28 01:42:00,
2013-04-27 19:57:00,69.5,47.0,29.96,ESE,108,0.0,8.0,45,0.00,,,0.00,weatherlink.com 1.10,2013-04-28 01:57:00,
2013-04-27 20:12:00,68.7,47.0,29.97,ESE,103,4.0,9.0,46,0.00,,,0.00,weatherlink.com 1.10,2013-04-28 02:12:00,
2013-04-27 20:27:00,68.1,47.0,29.97,ESE,119,3.0,11.0,47,0.00,,,0.00,weatherlink.com 1.10,2013-04-28 02:27:00,
2013-04-27 20:42:00,67.2,47.0,29.97,ESE,106,4.0,7.0,49,0.00,,,0.00,weatherlink.com 1.10,2013-04-28 02:42:00,
2013-04-27 20:57:00,66.3,47.0,29.98,ESE,103,3.0,7.0,51,0.00,,,0.00,weatherlink.com 1.10,2013-04-28 02:57:00,
2013-04-27 21:12:00,65.2,47.0,29.98,ESE,114,2.0,9.0,52,0.00,,,0.00,weatherlink.com 1.10,2013-04-28 03:12:00,
2013-04-27 21:27:00,63.3,47.0,29.98,SE,128,0.0,4.0,55,0.00,,,0.00,weatherlink.com 1.10,2013-04-28 03:27:00,
2013-04-27 21:42:00,61.5,47.0,29.98,SE,129,1.0,3.0,59,0.00,,,0.00,weatherlink.com 1.10,2013-04-28 03:42:00,
2013-04-27 21:57:00,60.9,47.0,29.98,SE,129,0.0,2.0,60,0.00,,,0.00,weatherlink.com 1.10,2013-04-28 03:57:00,
2013-04-27 22:12:00,60.7,47.0,29.98,SE,129,0.0,2.0,60,0.00,,,0.00,weatherlink.com 1.10,2013-04-28 04:12:00,
2013-04-27 22:27:00,60.3,47.0,29.98,SE,130,0.0,6.0,61,0.00,,,0.00,weatherlink.com 1.10,2013-04-28 04:27:00,
2013-04-27 22:42:00,60.1,46.0,29.98,SE,130,0.0,2.0,61,0.00,,,0.00,weatherlink.com 1.10,2013-04-28 04:42:00,
2013-04-27 22:57:00,59.1,46.0,29.98,SE,131,0.0,1.0,62,0.00,,,0.00,weatherlink.com 1.10,2013-04-28 04:57:00,
2013-04-27 23:12:00,58.6,46.0,29.97,SE,130,0.0,3.0,64,0.00,,,0.00,weatherlink.com 1.10,2013-04-28 05:12:00,
2013-04-27 23:27:00,58.6,47.0,29.97,SE,133,0.0,3.0,66,0.00,,,0.00,weatherlink.com 1.10,2013-04-28 05:27:00,
2013-04-27 23:42:00,58.5,48.0,29.97,SE,135,2.0,5.0,68,0.00,,,0.00,weatherlink.com 1.10,2013-04-28 05:42:00,
2013-04-27 23:57:00,57.8,48.0,29.97,SE,136,1.0,4.0,69,0.00,,,0.00,weatherlink.com 1.10,2013-04-28 05:57:00,